Terug naar catalogus

STARLINK-32122

ActiefCommunicatieVLEO
NORAD 60285·PAYLOAD·🇺🇸 United States

Gelanceerd Jul 28, 2024 vanaf Cape Canaveral Space Force Station

Loading…

Volgende Passages (komende 24 uur)

TLE

VersSource: CelesTrak SupGP

Epoch: Sep 14, 2026, 21:07 UTC

1 60285C 24132H   26257.88034722  .00044631  00000+0  14353-2 0  2571
2 60285  53.1588 252.8492 0001318  91.3457  57.0858 15.31677151    18

Volg STARLINK-32122 in realtime met AllMySat

Download on the App Store